Tracking 19638 objects as of 20-May-2019
HD Live streaming from Space Station
objects crossing your sky now

IRIDIUM 165

Track IRIDIUM 165 now!
10-day predictions
IRIDIUM 165 is classified as:


NORAD ID: 43572
Int'l Code: 2018-061D
Perigee: 783.1 km
Apogee: 786.5 km
Inclination: 86.4 °
Period: 100.4 minutes
Semi major axis: 7155 km
RCS: Unknown
Launch date: July 25, 2018
Source: United States (US)
Launch site: AIR FORCE WESTERN TEST RANGE (AFWTR)
aabbcc
Your satellite tracking list
Your tracking list is empty




NASA's NSSDC Master Catalog

Two Line Element Set (TLE):
1 43572U 18061D   19140.36506691  .00000086  00000-0  23672-4 0  9996
2 43572  86.4000  56.9377 0002424  79.4509 280.6960 14.34219779 42907
Source of the keplerian elements: AFSPC